| time (UTC) | temp F | wind direction | speed MPH | gust MPH | rain 1hr in | rain 24hr in | rain mn in | humidity % | barometer mb |
| 20260508033040 | 53 | 21 | 0.0 | 0.0 | 0.00 | 0.29 | 0.29 | 87 | 1013.5 |
| 20260508032537 | 53 | 21 | 0.0 | 0.0 | 0.00 | 0.29 | 0.29 | 87 | 1013.5 |
| 20260508032031 | 53 | 22 | 0.0 | 0.0 | 0.00 | 0.29 | 0.29 | 88 | 1013.4 |
| 20260508031525 | 54 | 22 | 0.0 | 0.0 | 0.00 | 0.29 | 0.29 | 86 | 1013.4 |
| 20260508031250 | 55 | 22 | 0.0 | 4.0 | 0.00 | 0.29 | 0.29 | 85 | 1013.3 |
| 20260508030513 | 56 | 24 | 0.0 | 4.0 | 0.00 | 0.29 | 0.29 | 83 | 1013.3 |
| 20260508030007 | 56 | 9 | 0.0 | 0.0 | 0.00 | 0.29 | 0.29 | 82 | 1013.2 |
| 20260508025733 | 56 | 9 | 0.0 | 0.0 | 0.00 | 0.29 | 0.29 | 78 | 1013.2 |
| 20260508024955 | 56 | 10 | 0.0 | 0.0 | 0.00 | 0.29 | 0.29 | 80 | 1013.2 |
| 20260508024449 | 57 | 10 | 0.0 | 0.0 | 0.00 | 0.29 | 0.29 | 79 | 1013.2 |
| 20260508023943 | 58 | 10 | 0.0 | 2.0 | 0.00 | 0.29 | 0.29 | 75 | 1013.2 |
| 20260508023708 | 59 | 10 | 0.0 | 2.0 | 0.00 | 0.29 | 0.29 | 70 | 1013.1 |
| 20260508022931 | 59 | 5 | 0.0 | 3.0 | 0.00 | 0.30 | 0.29 | 69 | 1013.0 |
| 20260508022656 | 59 | 316 | 0.0 | 3.0 | 0.00 | 0.32 | 0.29 | 70 | 1012.9 |
| 20260508021919 | 59 | 293 | 0.0 | 1.0 | 0.00 | 0.36 | 0.29 | 71 | 1013.0 |
| 20260508021420 | 58 | 295 | 0.0 | 6.0 | 0.00 | 0.38 | 0.29 | 71 | 1012.8 |
| 20260508020916 | 58 | 321 | 0.0 | 6.0 | 0.00 | 0.39 | 0.29 | 72 | 1012.7 |
| 20260508020646 | 57 | 267 | 0.0 | 1.0 | 0.00 | 0.40 | 0.29 | 76 | 1012.8 |
| 20260508015913 | 58 | 333 | 0.0 | 0.0 | 0.00 | 0.40 | 0.29 | 75 | 1012.6 |
| 20260508015413 | 58 | 333 | 0.0 | 0.0 | 0.00 | 0.40 | 0.29 | 74 | 1012.5 |
| 20260508014908 | 57 | 0 | 0.0 | 0.0 | 0.00 | 0.40 | 0.29 | 77 | 1012.5 |
| 20260508014406 | 57 | 0 | 0.0 | 0.0 | 0.00 | 0.41 | 0.29 | 75 | 1012.3 |
| 20260508013904 | 58 | 0 | 0.0 | 0.0 | 0.00 | 0.41 | 0.29 | 74 | 1012.2 |
| 20260508013401 | 59 | 0 | 0.0 | 0.0 | 0.00 | 0.41 | 0.29 | 77 | 1012.2 |
| 20260508012900 | 60 | 0 | 0.0 | 0.0 | 0.00 | 0.41 | 0.29 | 72 | 1012.1 |
| 20260508012358 | 60 | 0 | 0.0 | 2.0 | 0.00 | 0.42 | 0.29 | 70 | 1011.8 |
| 20260508011857 | 60 | 0 | 0.0 | 4.0 | 0.00 | 0.44 | 0.29 | 69 | 1011.6 |
| 20260508011357 | 60 | 9 | 0.0 | 4.0 | 0.00 | 0.44 | 0.29 | 69 | 1011.6 |
| 20260508010857 | 60 | 355 | 0.0 | 2.0 | 0.00 | 0.45 | 0.29 | 70 | 1011.5 |
| 20260508010354 | 61 | 355 | 0.0 | 2.0 | 0.00 | 0.45 | 0.29 | 69 | 1011.5 |
| 20260508005855 | 62 | 0 | 0.0 | 6.0 | 0.00 | 0.45 | 0.29 | 68 | 1011.5 |
| 20260508005353 | 62 | 10 | 0.0 | 6.0 | 0.00 | 0.49 | 0.29 | 66 | 1011.3 |
| 20260508004854 | 62 | 33 | 0.0 | 2.0 | 0.00 | 0.52 | 0.29 | 67 | 1011.2 |
| 20260508004625 | 62 | 344 | 1.0 | 11.0 | 0.00 | 0.53 | 0.29 | 64 | 1011.2 |
| 20260508003854 | 63 | 345 | 2.0 | 11.0 | 0.00 | 0.54 | 0.29 | 64 | 1010.9 |
| 20260508003356 | 63 | 5 | 2.0 | 11.0 | 0.00 | 0.54 | 0.29 | 67 | 1010.9 |
| 20260508002849 | 63 | 313 | 1.0 | 11.0 | 0.00 | 0.54 | 0.29 | 68 | 1011.0 |
| 20260508002347 | 63 | 330 | 0.0 | 5.0 | 0.00 | 0.54 | 0.29 | 69 | 1010.8 |
| 20260508002118 | 64 | 346 | 1.0 | 10.0 | 0.00 | 0.54 | 0.29 | 69 | 1010.7 |
| 20260508001348 | 64 | 342 | 2.0 | 13.0 | 0.00 | 0.56 | 0.29 | 68 | 1010.4 |
| 20260508000846 | 64 | 310 | 1.0 | 13.0 | 0.00 | 0.58 | 0.29 | 68 | 1010.4 |
| 20260508000346 | 65 | 0 | 0.0 | 5.0 | 0.00 | 0.60 | 0.29 | 69 | 1010.3 |
| 20260507235843 | 65 | 5 | 0.0 | 8.0 | 0.00 | 0.60 | 0.29 | 69 | 1010.3 |
| 20260507235343 | 65 | 324 | 0.0 | 8.0 | 0.00 | 0.60 | 0.29 | 68 | 1010.1 |
| 20260507234843 | 66 | 300 | 1.0 | 12.0 | 0.00 | 0.60 | 0.29 | 68 | 1010.0 |
| 20260507234343 | 66 | 281 | 1.0 | 12.0 | 0.00 | 0.61 | 0.29 | 67 | 1010.0 |
| 20260507233844 | 66 | 295 | 2.0 | 12.0 | 0.00 | 0.62 | 0.29 | 67 | 1010.0 |
| 20260507233345 | 67 | 355 | 2.0 | 11.0 | 0.00 | 0.64 | 0.29 | 66 | 1009.8 |
| 20260507232839 | 67 | 303 | 1.0 | 9.0 | 0.00 | 0.66 | 0.29 | 66 | 1009.8 |
| 20260507232340 | 68 | 327 | 2.0 | 12.0 | 0.00 | 0.69 | 0.29 | 66 | 1009.5 |
| 20260507231841 | 68 | 294 | 4.0 | 14.0 | 0.00 | 0.71 | 0.29 | 65 | 1009.4 |
| 20260507231340 | 68 | 266 | 4.0 | 14.0 | 0.00 | 0.74 | 0.29 | 66 | 1009.3 |
| 20260507230841 | 69 | 281 | 2.0 | 14.0 | 0.00 | 0.81 | 0.29 | 67 | 1009.5 |
| 20260507230340 | 69 | 333 | 2.0 | 9.0 | 0.00 | 0.83 | 0.29 | 65 | 1009.2 |
| 20260507225840 | 70 | 288 | 2.0 | 12.0 | 0.00 | 0.85 | 0.29 | 66 | 1009.2 |
| 20260507225340 | 70 | 324 | 3.0 | 12.0 | 0.00 | 0.90 | 0.29 | 67 | 1009.1 |
| 20260507224841 | 70 | 318 | 3.0 | 10.0 | 0.00 | 0.91 | 0.29 | 68 | 1009.0 |
| 20260507224335 | 71 | 5 | 2.0 | 9.0 | 0.00 | 0.91 | 0.29 | 67 | 1008.8 |
| 20260507223835 | 71 | 279 | 2.0 | 17.0 | 0.00 | 0.92 | 0.29 | 69 | 1008.8 |
| 20260507223607 | 72 | 345 | 2.0 | 17.0 | 0.00 | 0.92 | 0.29 | 65 | 1008.6 |
| 20260507222837 | 72 | 293 | 1.0 | 8.0 | 0.00 | 0.93 | 0.29 | 69 | 1008.5 |
| 20260507222336 | 73 | 282 | 1.0 | 8.0 | 0.00 | 0.94 | 0.29 | 69 | 1008.1 |
| 20260507221843 | 73 | 299 | 1.0 | 8.0 | 0.00 | 0.96 | 0.29 | 66 | 1007.9 |
| 20260507221334 | 74 | 343 | 1.0 | 10.0 | 0.00 | 0.96 | 0.29 | 67 | 1007.8 |
| 20260507220834 | 75 | 15 | 1.0 | 10.0 | 0.00 | 0.97 | 0.29 | 65 | 1007.7 |
| 20260507220333 | 75 | 322 | 0.0 | 4.0 | 0.00 | 0.97 | 0.29 | 69 | 1007.7 |
| 20260507215833 | 74 | 334 | 0.0 | 4.0 | 0.00 | 0.97 | 0.29 | 68 | 1007.7 |
| 20260507215604 | 73 | 309 | 1.0 | 6.0 | 0.00 | 0.97 | 0.29 | 69 | 1007.6 |
| 20260507214832 | 73 | 281 | 1.0 | 6.0 | 0.00 | 0.97 | 0.29 | 69 | 1007.6 |
| 20260507214331 | 73 | 9 | 1.0 | 8.0 | 0.00 | 0.97 | 0.29 | 69 | 1007.5 |
| 20260507214102 | 73 | 349 | 2.0 | 9.0 | 0.00 | 0.97 | 0.29 | 68 | 1007.4 |
| 20260507213330 | 73 | 328 | 2.0 | 9.0 | 0.00 | 0.97 | 0.29 | 67 | 1007.5 |
| 20260507212833 | 73 | 323 | 3.0 | 13.0 | 0.00 | 0.97 | 0.29 | 67 | 1007.3 |
| 20260507212326 | 73 | 340 | 2.0 | 13.0 | 0.00 | 0.97 | 0.29 | 69 | 1007.2 |
| 20260507211822 | 73 | 281 | 2.0 | 10.0 | 0.00 | 0.97 | 0.29 | 69 | 1007.3 |
| 20260507211314 | 73 | 275 | 2.0 | 10.0 | 0.00 | 0.97 | 0.29 | 70 | 1007.3 |
| 20260507210808 | 73 | 275 | 3.0 | 10.0 | 0.00 | 0.97 | 0.29 | 69 | 1007.2 |
| 20260507210303 | 74 | 5 | 2.0 | 12.0 | 0.00 | 0.97 | 0.29 | 69 | 1007.2 |
| 20260507205757 | 74 | 355 | 1.0 | 12.0 | 0.00 | 0.97 | 0.29 | 68 | 1007.2 |
| 20260507205250 | 75 | 327 | 2.0 | 10.0 | 0.00 | 0.97 | 0.29 | 70 | 1007.2 |
| 20260507205014 | 76 | 321 | 3.0 | 10.0 | 0.00 | 0.97 | 0.29 | 67 | 1007.0 |
| 20260507204509 | 78 | 346 | 2.0 | 9.0 | 0.00 | 0.97 | 0.29 | 65 | 1007.0 |
| 20260507203732 | 78 | 283 | 1.0 | 7.0 | 0.00 | 0.97 | 0.29 | 69 | 1006.9 |
| 20260507203226 | 77 | 254 | 1.0 | 4.0 | 0.00 | 0.97 | 0.29 | 71 | 1006.8 |
| 20260507202951 | 77 | 202 | 0.0 | 4.0 | 0.00 | 0.97 | 0.29 | 67 | 1006.7 |
| 20260507202215 | 76 | 232 | 0.0 | 3.0 | 0.00 | 0.97 | 0.29 | 72 | 1006.8 |
| 20260507201709 | 76 | 300 | 0.0 | 2.0 | 0.00 | 0.97 | 0.29 | 77 | 1006.8 |
| 20260507201203 | 76 | 305 | 0.0 | 2.0 | 0.00 | 0.97 | 0.29 | 78 | 1006.9 |
| 20260507200657 | 75 | 213 | 0.0 | 0.0 | 0.00 | 0.97 | 0.29 | 81 | 1007.0 |
| 20260507200151 | 75 | 213 | 0.0 | 4.0 | 0.00 | 0.97 | 0.29 | 81 | 1007.1 |
| 20260507195645 | 75 | 213 | 1.0 | 6.0 | 0.00 | 0.97 | 0.29 | 81 | 1007.2 |
| 20260507195138 | 75 | 205 | 1.0 | 6.0 | 0.00 | 0.97 | 0.29 | 83 | 1007.2 |
| 20260507194632 | 75 | 184 | 1.0 | 6.0 | 0.00 | 0.97 | 0.29 | 81 | 1007.1 |
| 20260507193620 | 74 | 182 | 4.0 | 9.0 | 0.00 | 0.97 | 0.29 | 79 | 1007.3 |
| 20260507193114 | 75 | 190 | 4.0 | 9.0 | 0.00 | 0.97 | 0.29 | 80 | 1007.3 |
| 20260507192609 | 76 | 206 | 3.0 | 8.0 | 0.00 | 0.97 | 0.29 | 80 | 1007.6 |
| 20260507192102 | 75 | 196 | 1.0 | 7.0 | 0.00 | 0.97 | 0.29 | 77 | 1007.2 |
| 20260507191828 | 75 | 175 | 0.0 | 8.0 | 0.00 | 0.97 | 0.29 | 78 | 1007.3 |
| 20260507191051 | 74 | 167 | 0.0 | 8.0 | 0.00 | 0.97 | 0.29 | 77 | 1007.2 |
| 20260507190544 | 75 | 192 | 0.0 | 5.0 | 0.00 | 0.97 | 0.29 | 78 | 1007.4 |
| 20260507190039 | 75 | 217 | 0.0 | 7.0 | 0.00 | 0.97 | 0.29 | 78 | 1007.6 |
| 20260507185533 | 75 | 278 | 0.0 | 7.0 | 0.00 | 0.97 | 0.29 | 75 | 1007.6 |
| 20260507185026 | 76 | 288 | 1.0 | 6.0 | 0.00 | 0.97 | 0.29 | 77 | 1007.6 |
| 20260507184521 | 76 | 296 | 2.0 | 11.0 | 0.00 | 0.97 | 0.29 | 76 | 1007.5 |
| 20260507184014 | 76 | 271 | 2.0 | 11.0 | 0.00 | 0.97 | 0.29 | 74 | 1007.9 |
| 20260507183508 | 76 | 196 | 1.0 | 8.0 | 0.00 | 0.97 | 0.29 | 74 | 1007.8 |
| 20260507183002 | 76 | 222 | 2.0 | 10.0 | 0.00 | 0.97 | 0.29 | 72 | 1007.9 |
| 20260507182727 | 76 | 277 | 2.0 | 10.0 | 0.00 | 0.97 | 0.29 | 73 | 1007.8 |
| 20260507181950 | 76 | 213 | 2.0 | 9.0 | 0.00 | 0.97 | 0.29 | 78 | 1007.6 |
| 20260507181445 | 75 | 281 | 2.0 | 9.0 | 0.00 | 0.97 | 0.29 | 77 | 1007.7 |
| 20260507180939 | 75 | 195 | 2.0 | 9.0 | 0.00 | 0.97 | 0.29 | 74 | 1007.6 |
| 20260507180436 | 75 | 288 | 2.0 | 9.0 | 0.00 | 0.97 | 0.29 | 77 | 1007.7 |
| 20260507175936 | 75 | 232 | 1.0 | 9.0 | 0.00 | 0.97 | 0.29 | 79 | 1007.7 |
| 20260507175435 | 75 | 202 | 2.0 | 8.0 | 0.00 | 0.97 | 0.29 | 79 | 1007.7 |
| 20260507175204 | 74 | 206 | 3.0 | 12.0 | 0.00 | 0.97 | 0.29 | 76 | 1007.8 |
| 20260507174432 | 74 | 179 | 3.0 | 12.0 | 0.00 | 0.97 | 0.29 | 81 | 1007.9 |
| 20260507173933 | 74 | 167 | 3.0 | 10.0 | 0.00 | 0.97 | 0.29 | 79 | 1007.9 |
| 20260507173433 | 74 | 214 | 2.0 | 8.0 | 0.00 | 0.97 | 0.29 | 80 | 1007.9 |
| 20260507172934 | 73 | 228 | 1.0 | 6.0 | 0.00 | 0.97 | 0.29 | 86 | 1007.8 |
| 20260507172430 | 73 | 211 | 2.0 | 9.0 | 0.00 | 0.97 | 0.29 | 84 | 1007.8 |
| 20260507171928 | 72 | 189 | 3.0 | 9.0 | 0.00 | 0.97 | 0.29 | 83 | 1007.9 |
| 20260507171431 | 72 | 183 | 3.0 | 8.0 | 0.00 | 0.97 | 0.29 | 83 | 1008.0 |
| 20260507170930 | 72 | 191 | 2.0 | 8.0 | 0.00 | 0.97 | 0.29 | 83 | 1008.1 |
| 20260507170427 | 72 | 163 | 1.0 | 8.0 | 0.00 | 0.97 | 0.29 | 86 | 1008.4 |
| 20260507165924 | 72 | 226 | 3.0 | 11.0 | 0.00 | 0.97 | 0.29 | 89 | 1008.6 |
| 20260507165425 | 71 | 207 | 3.0 | 11.0 | 0.00 | 0.97 | 0.29 | 85 | 1008.6 |
| 20260507164925 | 71 | 252 | 2.0 | 9.0 | 0.00 | 0.98 | 0.29 | 88 | 1008.8 |
| 20260507164657 | 71 | 205 | 4.0 | 11.0 | 0.00 | 0.99 | 0.29 | 87 | 1008.7 |
| 20260507163920 | 70 | 190 | 4.0 | 11.0 | 0.00 | 1.00 | 0.29 | 89 | 1008.6 |
| 20260507163414 | 70 | 205 | 3.0 | 9.0 | 0.00 | 1.01 | 0.29 | 89 | 1008.6 |
| 20260507162913 | 70 | 196 | 1.0 | 9.0 | 0.00 | 1.02 | 0.29 | 88 | 1008.3 |
| 20260507162413 | 69 | 187 | 2.0 | 9.0 | 0.00 | 1.02 | 0.29 | 92 | 1008.5 |
| 20260507161912 | 69 | 182 | 3.0 | 10.0 | 0.00 | 1.03 | 0.29 | 89 | 1008.6 |
| 20260507161412 | 69 | 167 | 3.0 | 12.0 | 0.00 | 1.05 | 0.29 | 92 | 1008.8 |
| 20260507160910 | 69 | 203 | 2.0 | 12.0 | 0.00 | 1.06 | 0.29 | 91 | 1009.1 |
| 20260507160408 | 69 | 208 | 3.0 | 14.0 | 0.00 | 1.06 | 0.29 | 93 | 1009.2 |
| 20260507160139 | 69 | 172 | 4.0 | 14.0 | 0.00 | 1.07 | 0.29 | 94 | 1009.3 |
| 20260507155408 | 68 | 182 | 3.0 | 11.0 | 0.00 | 1.07 | 0.29 | 95 | 1009.2 |
| 20260507154909 | 68 | 203 | 1.0 | 8.0 | 0.00 | 1.07 | 0.29 | 97 | 1009.3 |
| 20260507154409 | 67 | 204 | 1.0 | 6.0 | 0.00 | 1.09 | 0.29 | 97 | 1009.2 |
| 20260507154138 | 67 | 226 | 0.0 | 5.0 | 0.00 | 1.09 | 0.29 | 97 | 1009.4 |
| 20260507153405 | 67 | 191 | 0.0 | 5.0 | 0.00 | 1.09 | 0.29 | 97 | 1009.5 |
| 20260507151905 | 67 | 221 | 0.0 | 5.0 | 0.00 | 1.09 | 0.29 | 97 | 1009.4 |
| 20260507151404 | 67 | 212 | 1.0 | 5.0 | 0.00 | 1.09 | 0.29 | 98 | 1009.5 |
| 20260507150906 | 67 | 236 | 0.0 | 5.0 | 0.00 | 1.09 | 0.29 | 97 | 1009.2 |
| 20260507150405 | 66 | 251 | 0.0 | 5.0 | 0.00 | 1.09 | 0.29 | 99 | 1009.2 |
| 20260507145905 | 66 | 213 | 1.0 | 6.0 | 0.00 | 1.09 | 0.29 | 99 | 1009.0 |
| 20260507145402 | 66 | 183 | 1.0 | 6.0 | 0.00 | 1.09 | 0.29 | 99 | 1008.8 |
| 20260507145131 | 66 | 220 | 0.0 | 0.0 | 0.00 | 1.09 | 0.29 | 100 | 1008.7 |
| 20260507144402 | 65 | 220 | 0.0 | 0.0 | 0.01 | 1.09 | 0.29 | 100 | 1008.5 |
| 20260507143902 | 65 | 220 | 0.0 | 0.0 | 0.01 | 1.09 | 0.29 | 100 | 1008.7 |
| 20260507143401 | 65 | 219 | 0.0 | 4.0 | 0.02 | 1.09 | 0.29 | 100 | 1008.8 |
| 20260507143133 | 64 | 219 | 0.0 | 4.0 | 0.02 | 1.09 | 0.29 | 100 | 1008.8 |
| 20260507142400 | 65 | 193 | 0.0 | 0.0 | 0.03 | 1.09 | 0.29 | 100 | 1009.0 |
| 20260507141857 | 64 | 193 | 0.0 | 0.0 | 0.03 | 1.09 | 0.29 | 100 | 1009.2 |
| 20260507141356 | 64 | 193 | 0.0 | 0.0 | 0.03 | 1.09 | 0.29 | 100 | 1009.1 |
| 20260507140354 | 64 | 193 | 0.0 | 0.0 | 0.04 | 1.09 | 0.29 | 100 | 1009.1 |
| 20260507135855 | 64 | 193 | 0.0 | 0.0 | 0.05 | 1.09 | 0.29 | 100 | 1009.4 |
| 20260507135353 | 64 | 192 | 0.0 | 2.0 | 0.05 | 1.09 | 0.29 | 100 | 1009.4 |
| 20260507134850 | 64 | 202 | 0.0 | 2.0 | 0.06 | 1.09 | 0.29 | 100 | 1009.9 |
| 20260507134351 | 64 | 237 | 0.0 | 0.0 | 0.05 | 1.08 | 0.28 | 100 | 1009.9 |
| 20260507133844 | 64 | 241 | 0.0 | 0.0 | 0.05 | 1.08 | 0.28 | 100 | 1010.0 |
| 20260507133339 | 64 | 239 | 0.0 | 0.0 | 0.04 | 1.07 | 0.27 | 100 | 1010.3 |
| 20260507132833 | 64 | 238 | 0.0 | 0.0 | 0.04 | 1.07 | 0.27 | 100 | 1010.2 |
| 20260507132326 | 64 | 238 | 0.0 | 0.0 | 0.04 | 1.06 | 0.26 | 100 | 1009.9 |
| 20260507131315 | 64 | 238 | 0.0 | 0.0 | 0.03 | 1.05 | 0.26 | 100 | 1009.5 |
| 20260507130809 | 64 | 238 | 0.0 | 0.0 | 0.03 | 1.05 | 0.25 | 100 | 1009.3 |
| 20260507130303 | 64 | 238 | 0.0 | 0.0 | 0.03 | 1.05 | 0.25 | 100 | 1009.3 |
| 20260507125756 | 64 | 238 | 0.0 | 0.0 | 0.02 | 1.04 | 0.24 | 100 | 1009.3 |
| 20260507125250 | 64 | 238 | 0.0 | 0.0 | 0.01 | 1.03 | 0.24 | 100 | 1009.3 |
| 20260507124744 | 64 | 238 | 0.0 | 0.0 | 0.02 | 1.03 | 0.23 | 100 | 1009.5 |
| 20260507124239 | 64 | 238 | 0.0 | 0.0 | 0.02 | 1.03 | 0.23 | 100 | 1009.2 |
| 20260507123732 | 64 | 238 | 0.0 | 0.0 | 0.03 | 1.03 | 0.23 | 100 | 1009.1 |
| 20260507123226 | 63 | 276 | 0.0 | 0.0 | 0.03 | 1.03 | 0.23 | 100 | 1009.1 |
| 20260507122721 | 63 | 276 | 0.0 | 0.0 | 0.03 | 1.02 | 0.23 | 100 | 1009.1 |
| 20260507122447 | 63 | 276 | 0.0 | 0.0 | 0.04 | 1.02 | 0.22 | 100 | 1009.0 |
| 20260507121940 | 63 | 276 | 0.0 | 0.0 | 0.04 | 1.02 | 0.22 | 100 | 1009.0 |
| 20260507121203 | 63 | 276 | 0.0 | 0.0 | 0.05 | 1.02 | 0.22 | 100 | 1009.1 |
| 20260507120927 | 63 | 276 | 0.0 | 0.0 | 0.07 | 1.02 | 0.22 | 100 | 1009.3 |
| 20260507120150 | 63 | 276 | 0.0 | 0.0 | 0.08 | 1.02 | 0.22 | 100 | 1009.3 |
| 20260507115645 | 63 | 276 | 0.0 | 0.0 | 0.08 | 1.02 | 0.22 | 100 | 1009.4 |
| 20260507115139 | 63 | 276 | 0.0 | 0.0 | 0.08 | 1.02 | 0.22 | 100 | 1009.5 |
| 20260507114632 | 63 | 276 | 0.0 | 0.0 | 0.07 | 1.01 | 0.21 | 100 | 1010.2 |
| 20260507114359 | 63 | 276 | 0.0 | 0.0 | 0.07 | 1.01 | 0.21 | 100 | 1010.6 |
| 20260507113851 | 63 | 276 | 0.0 | 0.0 | 0.06 | 1.00 | 0.20 | 100 | 1010.6 |
| 20260507113116 | 63 | 276 | 0.0 | 0.0 | 0.06 | 1.00 | 0.20 | 100 | 1010.6 |
| 20260507112609 | 63 | 276 | 0.0 | 0.0 | 0.05 | 0.99 | 0.19 | 100 | 1010.4 |
| 20260507112103 | 63 | 276 | 0.0 | 0.0 | 0.04 | 0.98 | 0.18 | 100 | 1010.4 |
| 20260507111556 | 63 | 276 | 0.0 | 0.0 | 0.05 | 0.98 | 0.18 | 100 | 1010.3 |
| 20260507111051 | 63 | 276 | 1.0 | 8.0 | 0.05 | 0.97 | 0.17 | 100 | 1010.6 |
| 20260507110546 | 63 | 298 | 0.0 | 8.0 | 0.03 | 0.95 | 0.15 | 100 | 1011.0 |
| 20260507110039 | 63 | 213 | 0.0 | 0.0 | 0.03 | 0.94 | 0.14 | 100 | 1010.6 |
| 20260507105533 | 63 | 212 | 0.0 | 0.0 | 0.05 | 0.94 | 0.14 | 100 | 1009.5 |
| 20260507105026 | 63 | 212 | 0.0 | 0.0 | 0.05 | 0.94 | 0.14 | 100 | 1009.1 |
| 20260507104521 | 63 | 212 | 0.0 | 0.0 | 0.05 | 0.94 | 0.14 | 100 | 1009.2 |
| 20260507104016 | 63 | 212 | 0.0 | 0.0 | 0.05 | 0.94 | 0.14 | 100 | 1009.3 |
| 20260507103509 | 63 | 212 | 0.0 | 0.0 | 0.05 | 0.94 | 0.14 | 100 | 1009.2 |
| 20260507103003 | 63 | 212 | 0.0 | 0.0 | 0.05 | 0.94 | 0.14 | 100 | 1009.4 |
| 20260507102457 | 63 | 212 | 0.0 | 0.0 | 0.05 | 0.94 | 0.14 | 100 | 1009.7 |
| 20260507101951 | 63 | 213 | 0.0 | 0.0 | 0.05 | 0.94 | 0.14 | 100 | 1009.8 |
| 20260507101446 | 63 | 213 | 1.0 | 8.0 | 0.04 | 0.93 | 0.13 | 100 | 1009.9 |
| 20260507100940 | 63 | 217 | 1.0 | 8.0 | 0.03 | 0.92 | 0.12 | 100 | 1010.0 |
| 20260507100441 | 63 | 188 | 1.0 | 5.0 | 0.03 | 0.92 | 0.12 | 100 | 1009.5 |
| 20260507095941 | 63 | 200 | 0.0 | 5.0 | 0.01 | 0.90 | 0.11 | 100 | 1009.8 |
| 20260507095709 | 63 | 201 | 0.0 | 1.0 | 0.00 | 0.89 | 0.09 | 100 | 1010.0 |
| 20260507095210 | 63 | 193 | 0.0 | 0.0 | 0.00 | 0.89 | 0.09 | 100 | 1009.7 |
| 20260507094435 | 63 | 194 | 0.0 | 0.0 | 0.00 | 0.89 | 0.09 | 100 | 1009.2 |
| 20260507093429 | 63 | 194 | 0.0 | 0.0 | 0.00 | 0.89 | 0.09 | 100 | 1009.6 |
| 20260507092430 | 63 | 194 | 0.0 | 0.0 | 0.00 | 0.89 | 0.09 | 100 | 1009.4 |
| 20260507092200 | 63 | 194 | 0.0 | 0.0 | 0.00 | 0.89 | 0.09 | 100 | 1009.4 |
| 20260507091432 | 63 | 194 | 0.0 | 0.0 | 0.00 | 0.89 | 0.09 | 100 | 1009.4 |
| 20260507090928 | 63 | 194 | 0.0 | 0.0 | 0.00 | 0.89 | 0.09 | 100 | 1009.3 |
| 20260507090426 | 63 | 191 | 0.0 | 0.0 | 0.01 | 0.89 | 0.09 | 100 | 1009.2 |
| 20260507085927 | 63 | 191 | 0.0 | 0.0 | 0.01 | 0.89 | 0.09 | 100 | 1009.2 |
| 20260507085427 | 63 | 191 | 0.0 | 5.0 | 0.01 | 0.89 | 0.09 | 100 | 1009.4 |
| 20260507084922 | 63 | 191 | 0.0 | 5.0 | 0.01 | 0.89 | 0.09 | 100 | 1009.3 |
| 20260507084422 | 63 | 175 | 0.0 | 5.0 | 0.01 | 0.89 | 0.09 | 100 | 1009.5 |
| 20260507083923 | 63 | 171 | 0.0 | 5.0 | 0.01 | 0.89 | 0.09 | 100 | 1009.7 |
| 20260507083423 | 63 | 236 | 0.0 | 0.0 | 0.01 | 0.89 | 0.09 | 100 | 1009.8 |
| 20260507082923 | 63 | 236 | 0.0 | 0.0 | 0.01 | 0.89 | 0.09 | 100 | 1009.7 |
| 20260507082422 | 63 | 236 | 0.0 | 0.0 | 0.01 | 0.89 | 0.09 | 100 | 1009.7 |
| 20260507081921 | 64 | 236 | 0.0 | 0.0 | 0.01 | 0.89 | 0.09 | 100 | 1010.5 |
| 20260507081422 | 63 | 236 | 0.0 | 0.0 | 0.01 | 0.89 | 0.09 | 100 | 1010.4 |
| 20260507080922 | 63 | 236 | 0.0 | 0.0 | 0.01 | 0.89 | 0.09 | 100 | 1010.1 |
| 20260507080418 | 64 | 236 | 0.0 | 0.0 | 0.00 | 0.88 | 0.08 | 100 | 1010.2 |
| 20260507075919 | 64 | 236 | 0.0 | 0.0 | 0.00 | 0.88 | 0.08 | 100 | 1010.3 |
| 20260507075418 | 64 | 236 | 0.0 | 0.0 | 0.00 | 0.88 | 0.08 | 100 | 1010.6 |
| 20260507074918 | 64 | 236 | 0.0 | 0.0 | 0.00 | 0.88 | 0.08 | 100 | 1010.3 |
| 20260507074419 | 63 | 236 | 1.0 | 5.0 | 0.00 | 0.88 | 0.08 | 100 | 1010.0 |
| 20260507073919 | 63 | 236 | 1.0 | 5.0 | 0.00 | 0.88 | 0.08 | 100 | 1009.7 |
| 20260507073418 | 63 | 192 | 0.0 | 5.0 | 0.00 | 0.88 | 0.08 | 100 | 1009.3 |
| 20260507072918 | 63 | 160 | 0.0 | 0.0 | 0.01 | 0.88 | 0.08 | 100 | 1009.5 |
| 20260507072417 | 63 | 196 | 0.0 | 0.0 | 0.01 | 0.88 | 0.08 | 100 | 1009.7 |
| 20260507071420 | 63 | 182 | 0.0 | 0.0 | 0.02 | 0.88 | 0.08 | 100 | 1010.1 |
| 20260507070915 | 63 | 182 | 0.0 | 0.0 | 0.02 | 0.88 | 0.08 | 100 | 1010.0 |
| 20260507070414 | 63 | 182 | 0.0 | 0.0 | 0.02 | 0.88 | 0.08 | 100 | 1009.8 |
| 20260507070140 | 64 | 240 | 0.0 | 0.0 | 0.03 | 0.88 | 0.08 | 100 | 1010.2 |
| 20260507065402 | 63 | 240 | 0.0 | 0.0 | 0.04 | 0.88 | 0.08 | 100 | 1010.4 |
| 20260507064856 | 64 | 240 | 0.0 | 0.0 | 0.05 | 0.88 | 0.08 | 100 | 1010.5 |
| 20260507064350 | 64 | 240 | 0.0 | 0.0 | 0.05 | 0.88 | 0.08 | 100 | 1010.7 |
| 20260507064116 | 64 | 240 | 0.0 | 0.0 | 0.05 | 0.88 | 0.08 | 100 | 1010.8 |
| 20260507063338 | 64 | 240 | 0.0 | 0.0 | 0.04 | 0.87 | 0.08 | 100 | 1009.9 |
| 20260507062832 | 64 | 250 | 0.0 | 0.0 | 0.05 | 0.87 | 0.07 | 100 | 1011.2 |
| 20260507062325 | 64 | 250 | 0.0 | 3.0 | 0.05 | 0.87 | 0.07 | 100 | 1011.2 |
| 20260507062051 | 64 | 250 | 0.0 | 3.0 | 0.05 | 0.87 | 0.07 | 100 | 1011.0 |
| 20260507061314 | 64 | 241 | 0.0 | 0.0 | 0.04 | 0.86 | 0.06 | 100 | 1010.5 |
| 20260507060807 | 64 | 241 | 0.0 | 0.0 | 0.04 | 0.86 | 0.06 | 100 | 1010.2 |
| 20260507060300 | 64 | 242 | 0.0 | 0.0 | 0.04 | 0.86 | 0.06 | 100 | 1011.7 |
| 20260507060027 | 64 | 242 | 0.0 | 0.0 | 0.04 | 0.85 | 0.05 | 100 | 1012.2 |
| 20260507055247 | 64 | 242 | 0.0 | 0.0 | 0.03 | 0.84 | 0.04 | 100 | 1012.3 |
| 20260507055013 | 64 | 242 | 0.0 | 0.0 | 0.02 | 0.83 | 0.03 | 100 | 1012.4 |
| 20260507054508 | 64 | 242 | 0.0 | 0.0 | 0.03 | 0.83 | 0.03 | 100 | 1012.5 |
| 20260507054002 | 64 | 242 | 0.0 | 0.0 | 0.03 | 0.83 | 0.03 | 100 | 1012.5 |
| 20260507053224 | 64 | 242 | 0.0 | 1.0 | 0.03 | 0.83 | 0.03 | 100 | 1012.5 |
| 20260507052719 | 64 | 242 | 0.0 | 1.0 | 0.02 | 0.82 | 0.02 | 100 | 1012.2 |
| 20260507052211 | 64 | 244 | 0.0 | 0.0 | 0.02 | 0.82 | 0.02 | 100 | 1012.5 |
| 20260507051705 | 64 | 244 | 0.0 | 0.0 | 0.02 | 0.82 | 0.02 | 100 | 1012.2 |
| 20260507051200 | 64 | 244 | 0.0 | 0.0 | 0.02 | 0.82 | 0.02 | 100 | 1012.1 |
| 20260507050654 | 64 | 243 | 0.0 | 0.0 | 0.02 | 0.82 | 0.02 | 100 | 1012.7 |
| 20260507050148 | 64 | 243 | 0.0 | 0.0 | 0.02 | 0.82 | 0.02 | 100 | 1012.3 |
| 20260507045642 | 64 | 243 | 0.0 | 0.0 | 0.01 | 0.81 | 0.01 | 100 | 1011.9 |
| 20260507045136 | 64 | 271 | 0.0 | 0.0 | 0.01 | 0.81 | 0.01 | 100 | 1012.8 |
| 20260507044630 | 64 | 271 | 0.0 | 0.0 | 0.00 | 0.80 | 0.00 | 100 | 1012.9 |
| 20260507044124 | 64 | 271 | 0.0 | 0.0 | 0.00 | 0.80 | 0.00 | 100 | 1012.6 |
| 20260507043618 | 64 | 271 | 0.0 | 0.0 | 0.00 | 0.80 | 0.00 | 100 | 1013.3 |
| 20260507043111 | 64 | 234 | 0.0 | 0.0 | 0.00 | 0.80 | 0.00 | 100 | 1012.7 |
| 20260507042838 | 64 | 234 | 0.0 | 0.0 | 0.00 | 0.80 | 0.00 | 100 | 1012.2 |
| 20260507042059 | 64 | 234 | 0.0 | 0.0 | 0.00 | 0.80 | 0.00 | 99 | 1012.3 |
| 20260507041824 | 64 | 234 | 0.0 | 0.0 | 0.00 | 0.80 | 0.00 | 100 | 1012.5 |
| 20260507041048 | 64 | 234 | 0.0 | 0.0 | 0.00 | 0.80 | 0.00 | 100 | 1012.3 |
| 20260507040541 | 64 | 234 | 0.0 | 0.0 | 0.00 | 0.80 | 0.00 | 99 | 1012.1 |
| 20260507040036 | 64 | 234 | 0.0 | 0.0 | 0.00 | 0.80 | 0.00 | 99 | 1011.9 |
| 20260507035530 | 64 | 234 | 0.0 | 0.0 | 0.00 | 0.80 | 0.80 | 99 | 1012.1 |
| 20260507035025 | 64 | 234 | 0.0 | 0.0 | 0.00 | 0.80 | 0.80 | 99 | 1012.3 |
| 20260507033526 | 64 | 234 | 0.0 | 0.0 | 0.00 | 0.80 | 0.80 | 99 | 1012.1 |